Dewpoint
64 70 71 72 72 71 71 70 70 70 69 69 69 69 69 70 70 70 69 68 68 67 64 63 62 63 63 63 64 66 66 66 65 65 65 63 63 63 65 65 66 63 66
63 69 70 71 71 71 71 70 70 69 69 69 69 68 69 70 69 70 69 67 67 66 63 62 61 62 64 64 65 66 66 65 64 65 64 62 63 63 63 63 64 61 64
63 65 69 71 71 71 71 70 70 69 69 69 68 69 69 69 69 69 69 66 66 66 62 61 61 62 62 63 65 65 65 63 63 64 63 60 58 62 63 62 63 62 62
61 60 69 70 71 71 70 69 69 69 69 68 68 69 69 69 69 69 68 66 66 66 62 60 60 62 63 64 65 64 64 63 62 61 56 57 58 62 63 63 63 62 61
67 66 69 69 70 70 69 69 68 68 67 67 68 69 69 69 69 69 68 66 67 65 62 60 61 62 63 63 63 63 64 62 61 58 55 56 57 60 62 62 62 62 62
67 68 69 69 70 69 69 69 68 67 67 67 68 69 69 69 69 69 68 67 67 65 62 61 61 62 63 62 62 62 62 60 58 55 55 56 55 59 59 59 61 61 61
66 65 68 68 68 68 69 69 68 67 67 68 68 69 69 70 69 69 68 67 66 65 63 62 62 62 62 62 62 62 61 60 53 54 54 54 54 58 59 58 59 59 59
66 67 68 69 68 68 68 68 67 67 68 68 68 68 69 69 69 69 68 67 66 66 65 64 64 62 61 61 61 60 62 59 53 53 53 54 58 58 58 58 58 57 57
67 67 66 67 68 67 67 67 67 67 67 67 67 67 67 67 67 68 68 67 66 66 65 64 63 61 60 59 59 59 60 59 52 53 53 54 58 57 57 57 57 56 56
65 64 64 65 66 66 66 66 67 67 67 67 66 66 65 66 66 67 66 66 65 65 64 63 62 60 58 56 56 57 58 58 52 53 55 55 57 57 56 56 56 56 56
62 63 63 63 64 64 64 66 67 67 66 65 65 64 61 59 60 62 65 65 65 64 64 62 61 59 57 56 55 57 53 52 54 56 57 60 58 57 56 56 55 55 55
61 62 62 61 61 62 63 65 65 64 62 61 59 57 56 59 60 62 63 64 64 63 62 62 60 58 54 47 48 51 44 52 56 57 59 61 58 56 56 56 55 55 55
59 60 62 61 62 62 62 60 63 63 61 59 58 59 59 61 60 60 59 60 60 60 57 58 56 51 51 49 46 43 40 44 51 55 59 61 59 56 57 56 55 55 54
56 57 59 60 61 61 62 61 61 61 59 59 60 58 58 58 57 58 56 55 53 53 50 51 52 51 47 46 45 41 37 39 48 52 57 59 60 57 57 57 56 55 54
54 55 57 57 58 58 59 60 60 60 60 61 59 58 59 56 56 57 57 55 55 54 51 53 50 48 46 43 40 37 38 37 43 45 50 57 57 57 57 57 56 55 55
54 54 55 55 56 56 56 57 57 57 58 60 58 58 58 59 57 57 57 56 55 55 54 51 51 48 47 42 37 36 36 38 38 45 45 51 55 57 57 56 56 54 55
54 54 54 54 55 54 55 56 55 55 53 48 49 54 56 58 59 58 58 58 56 54 54 52 50 47 44 41 37 36 36 37 37 37 45 50 53 56 57 59 56 54 54
53 53 54 55 55 55 54 55 56 56 55 49 46 56 56 57 60 59 58 56 56 53 51 50 47 45 44 41 38 36 37 37 34 35 44 49 49 49 55 57 57 54 52
52 53 53 53 54 53 54 54 52 52 53 48 48 51 58 57 60 58 59 58 54 53 53 51 49 46 41 40 38 39 37 38 35 35 38 41 47 47 48 53 52 51 49
51 53 52 51 51 51 50 49 48 49 48 47 53 55 60 59 59 60 60 58 54 53 53 51 46 44 42 40 38 36 39 39 37 37 36 38 40 47 46 46 47 47 50
50 51 51 50 51 48 49 48 47 49 50 53 55 59 56 56 59 60 59 56 54 53 51 49 46 40 39 42 40 42 42 40 37 37 38 36 36 36 44 44 44 42 44
49 50 50 49 49 49 50 49 50 51 53 53 58 59 58 58 60 60 58 56 55 54 51 49 45 43 41 43 41 42 40 38 40 38 38 37 35 35 34 35 35 38 37
47 48 49 49 49 50 50 53 54 54 52 53 56 58 58 60 60 59 58 57 56 54 52 48 48 44 41 44 42 41 37 36 38 39 39 38 35 36 35 35 35 33 35
49 48 48 49 49 50 54 54 52 51 49 51 55 58 59 60 59 59 57 57 57 56 52 49 49 47 47 46 45 43 42 38 34 31 37 38 37 36 36 36 35 34 33
49 49 50 51 50 53 55 55 56 51 51 53 55 58 59 59 58 58 57 56 55 54 52 51 50 49 48 46 44 44 43 39 38 36 33 34 38 38 37 38 37 36 34
49 49 50 51 52 53 55 57 57 55 52 56 57 57 57 58 57 58 56 54 54 54 52 52 49 48 48 48 44 43 41 40 39 38 35 35 34 34 37 38 39 37 36
Lifted_Index
-4 -5 -5 -6 -7 -7 -6 -5 -4 -3 -3 -2 -1 -1 -1 -1 -2 -1 -1 0 1 2 3 4 4 4 4 4 3 2 2 1 2 2 2 2 3 2 2 2 2 1 1
-3 -4 -5 -6 -7 -7 -6 -5 -4 -3 -3 -2 -2 -1 -2 -2 -2 -2 -1 0 1 2 3 4 4 4 4 3 2 2 1 1 2 2 2 2 2 2 2 2 2 2 2
-1 -2 -4 -6 -7 -6 -6 -5 -4 -3 -3 -2 -2 -2 -2 -2 -2 -2 -1 -0 1 2 3 4 4 4 3 3 2 1 1 2 2 2 2 2 3 2 2 2 2 3 3
-1 -2 -3 -5 -6 -6 -5 -5 -4 -3 -3 -2 -2 -3 -3 -2 -2 -2 -1 -1 0 1 3 4 4 3 3 3 2 2 2 2 3 3 3 3 3 3 2 2 2 3 3
-3 -3 -4 -5 -5 -6 -5 -4 -4 -3 -3 -2 -3 -3 -3 -3 -2 -2 -2 -1 -0 1 3 4 3 3 3 3 3 2 2 2 3 4 4 4 4 3 3 3 3 3 3
-4 -4 -4 -4 -5 -5 -5 -4 -3 -3 -3 -3 -3 -3 -3 -3 -3 -3 -2 -2 -1 1 2 3 3 3 4 4 4 3 2 3 4 4 5 4 4 4 4 4 3 3 3
-4 -3 -3 -3 -3 -4 -4 -3 -3 -3 -3 -3 -3 -3 -3 -3 -3 -3 -3 -2 -1 1 2 2 3 4 4 4 4 3 3 3 4 5 5 5 4 4 4 4 4 4 4
-4 -3 -3 -2 -2 -2 -3 -2 -3 -3 -3 -3 -3 -3 -3 -3 -3 -3 -3 -2 -1 0 1 2 3 4 5 5 4 4 3 3 4 4 5 5 5 5 5 5 5 5 6
-4 -3 -3 -2 -2 -2 -1 -1 -2 -3 -3 -3 -2 -2 -1 -2 -2 -2 -2 -1 -1 -0 1 2 3 4 5 5 5 4 4 4 4 4 5 5 5 5 5 6 6 6 6
-3 -3 -2 -1 -1 -1 -0 -1 -2 -3 -2 -1 -1 -0 -0 -0 -1 -1 -1 -0 0 1 2 3 4 5 5 6 5 5 5 4 4 4 4 5 5 5 6 6 6 6 6
-3 -2 -1 -0 0 1 1 -0 -2 -2 -1 0 1 1 2 1 1 1 0 1 1 2 2 3 4 5 6 6 6 6 5 5 4 4 4 4 5 5 6 6 6 6 7
-3 -2 -1 0 1 1 1 0 -1 -1 0 1 2 3 3 2 2 2 2 2 2 2 2 3 3 4 5 6 7 7 6 5 5 4 4 4 4 5 5 6 6 7 7
-2 -2 -1 -0 0 1 1 1 0 0 1 2 3 3 3 3 3 3 4 4 4 3 3 2 3 4 5 6 7 8 7 7 6 5 4 4 4 5 5 6 6 7 7
-2 -1 -1 0 1 1 1 1 1 2 2 3 3 3 3 4 4 4 5 5 4 3 3 2 3 3 5 6 7 8 9 9 8 7 6 5 4 5 5 5 6 7 7
-1 -1 0 1 1 2 2 2 2 3 3 3 3 3 3 4 4 4 4 4 3 3 2 2 3 4 5 6 8 9 10 10 10 9 8 7 6 5 5 5 6 6 7
-0 0 1 1 2 3 3 3 4 4 4 3 3 3 3 3 3 3 2 2 2 2 2 2 3 4 6 7 7 8 9 9 10 10 10 9 7 6 5 5 5 6 6
1 1 2 3 4 5 4 5 5 5 5 5 5 4 3 2 1 1 0 0 1 1 2 2 3 4 6 6 7 7 7 8 9 10 10 9 8 7 6 5 5 6 6
2 3 4 5 6 6 6 6 6 6 6 6 6 5 3 1 -0 -1 -1 -0 0 1 1 2 2 4 5 6 7 7 7 7 8 9 10 10 9 8 6 6 6 6 7
4 4 5 6 6 6 6 7 7 7 7 6 6 5 2 0 -1 -1 -1 -0 0 1 1 1 2 4 5 6 7 7 7 7 7 9 10 10 10 9 8 7 7 7 7
4 5 5 5 6 6 6 6 6 6 6 6 5 3 1 -0 -1 -1 -1 -1 -0 0 1 1 2 4 5 6 7 7 7 7 7 8 9 10 10 9 9 9 9 9 9
5 5 5 5 5 5 5 5 5 5 5 4 3 1 1 0 -1 -1 -1 -1 -0 -0 0 1 2 3 5 6 7 7 7 7 7 7 8 9 10 10 10 10 10 10 10
5 5 5 5 5 5 4 4 3 3 3 2 1 0 0 0 -1 -1 -1 -1 -1 -0 0 1 2 3 4 6 7 7 7 6 7 7 8 9 10 10 10 10 11 11 11
5 5 5 5 4 4 3 3 2 2 2 2 1 -0 -0 -1 -1 -1 -1 -1 -1 -1 -0 1 2 3 4 6 7 7 6 6 6 7 8 9 9 9 9 10 10 10 10
4 5 5 4 4 3 2 2 2 2 2 2 1 -0 -1 -2 -2 -2 -1 -1 -1 -0 0 1 2 2 4 5 6 6 6 6 5 6 7 8 9 9 9 9 10 10 10
3 4 4 4 3 2 2 1 1 1 1 1 1 -0 -1 -2 -2 -2 -1 -1 -1 -0 1 1 2 2 3 5 6 6 6 6 5 5 5 6 7 8 9 9 9 10 10
2 3 3 3 2 2 1 1 0 0 1 1 0 -0 -1 -2 -2 -2 -1 -1 -0 0 1 1 2 2 3 5 6 6 6 6 5 4 4 5 6 7 9 9 9 9 10